Location: Bats
(43.6587°N, 0.4584°W)
Time: 08:43:11
(UTC+00:00)

Resurs 1-3 - Pass Details

Date: 12 January 2026
Orbit: 612 x 615 km, 97.7° (Epoch: 17 February)

Event Time Altitude Azimuth Distance (km) Brightness Sun altitude
Rises 18:20:36 0° 163° (SSE) 2,872 7.0 -16.5°
Reaches altitude 10° 18:22:46 10° 162° (SSE) 1,971 6.1 -16.9°
Maximum altitude 18:27:03 81° 77° (ENE) 630 3.4 -17.6°
Drops below altitude 10° 18:31:23 10° 350° (N) 1,987 6.1 -18.4°
Sets 18:33:34 0° 349° (N) 2,896 7.0 -18.8°
